Station IOSN3 - Isle of Shoals, NH Image indicating link to RSS feed of recent meteorological observations for station IOSN3


Conditions at IOSN3 as of
(1:00 pm EDT)
1700 GMT on 05/22/2024:
     

Click on the graph icon in the table below to see a time series plot of the last five days of that observation.

5-day plot - Wind Direction Wind Direction (WDIR): S ( 170 deg true )
5-day plot - Wind Speed Wind Speed (WSPD): 18 kts
5-day plot - Wind Gust Wind Gust (GST): 18 kts
5-day plot - Atmospheric Pressure Atmospheric Pressure (PRES):29.84 in
5-day plot - Pressure Tendency Pressure Tendency (PTDY):-0.04 in ( Falling )
5-day plot - Air Temperature Air Temperature (ATMP): 73.2 °F
5-day plot - Dew Point Dew Point (DEWP): 55.9 °F
5-day plot - Wind Speed at 10 Meters Wind Speed at 10 meters (WSPD10M): 17 kts
5-day plot - Wind Speed at 20 Meters Wind Speed at 20 meters (WSPD20M): 17 kts
5-day plot -  Wind Speed, Wind Gust and Atmospheric Pressure Combined plot of Wind Speed, Gust, and Air Pressure
Continuous Winds
TIME
(EDT)
5-day plot - Wind Direction WDIR 5-day plot - Wind Speed WSPD
1:00 pmSSE ( 165 deg ) 17 kts
12:50 pmSSE ( 167 deg ) 17 kts
12:40 pmS ( 171 deg ) 16 kts
12:30 pmS ( 173 deg ) 16 kts
12:20 pmS ( 172 deg ) 16 kts
12:10 pmS ( 174 deg ) 17 kts
 
Peak gust during the measurement hour
TIME
(EDT)
5-day plot - Gust Direction GDR 5-day plot - Gust Speed GST
12:58 pmSSE ( 160 deg ) 18 kts
Previous observations
TIME
(EDT)
5-day plot - Wind Direction
WDIR
 
5-day plot - Wind Speed
WSPD
kts
5-day plot - Wind Gust
GST
kts
5-day plot - Wave Height
WVHT
ft
5-day plot - Dominant Wave Period
DPD
sec
5-day plot - Average Wave Period
APD
sec
5-day plot - Mean Wave Direction
MWD
 
5-day plot - Atmospheric Pressure
PRES
in
5-day plot - Pressure Tendency
PTDY
in
5-day plot - Air Temperature
ATMP
°F
5-day plot - Water Temperature
WTMP
°F
5-day plot - Dew Point
DEWP
°F
5-day plot - Salinity
SAL
psu
5-day plot - Visibility
VIS
nmi
5-day plot - Tide (above MLLW)
TIDE
ft
2024-05-22 12:00 pm S 17 17----29.87-0.03 71.8- 56.5---
2024-05-22 11:00 am S 12 13----29.89-0.02 70.2- 57.6---
2024-05-22 10:00 amSSW 16 16----29.88-0.02 68.2- 59.5---
2024-05-22 09:00 amSSW 13 14----29.90+0.00 66.2- 60.8---
2024-05-22 08:00 amSSW 13 13----29.91+0.05 63.5- 61.5---
2024-05-22 07:00 am SW 10 11----29.91+0.05 63.0- 61.0---
2024-05-22 06:00 am SW 14 14----29.89+0.02 62.6- 62.4---
2024-05-22 05:00 am SW 16 16----29.86-0.03 64.2- 62.1---
2024-05-22 04:00 am SW 13 13----29.85-0.02 65.5- 61.5---
2024-05-22 03:00 am W 7 8----29.87-0.01 65.5- 60.4---
2024-05-22 02:00 am W 6 7----29.89+0.01 64.2- 60.6---
2024-05-22 01:00 am W 7 8----29.88-0.02 65.7- 61.0---
2024-05-22 12:00 am W 10 10----29.88-0.01 65.7- 62.8---
2024-05-21 11:00 pm SW 13 14----29.88-0.02 64.2- 60.3---
2024-05-21 10:00 pm S 8 10----29.90+0.04 69.8- 58.8---
2024-05-21 09:00 pm NE 10 10----29.90+0.05 69.6- 59.5---
2024-05-21 08:00 pm W 24 27----29.90+0.05 67.6- 62.8---
2024-05-21 07:00 pm SE 4 5----29.86+0.00 63.3- 55.0---
2024-05-21 06:00 pm S 19 20----29.85-0.01 61.3- 54.0---
2024-05-21 05:00 pmSSE 23 24----29.85-0.03 60.4- 53.4---
2024-05-21 04:00 pmSSE 21 22----29.85-0.04 59.7- 52.7---
2024-05-21 03:00 pmSSE 21 22----29.86-0.06 59.5- 53.6---
2024-05-21 02:00 pmSSE 20 21----29.88-0.06 57.4- 57.4---